CSUNSAT

Last updated on Fri May 26 2017 00:15:03 GMT+0000 (Coordinated Universal Time)

1 42715U 98067LW 17144.57532704 .00010452 00000-0 16140-3 0 9996 2 42715 51.6411 155.9660 0003260 138.9516 305.4042 15.54724377 839
UTC large
Height (km)
Speed (km/s)
/
Latitude / Longitude
Inclination (degrees)
Orbital Period (minutes)
Azimuth
Elevation
Range (km)
Doppler Factor

Next 0 passes for location: London (51.5072 / 0.1276)

Sorry there are no passes over London.